Vorticity
nan nan nan nan nan nan nan nan nan nan nan nan nan nan nan nan nan nan nan nan nan nan
nan 6 6 7 4 6 7 7 8 7 8 8 7 7 6 7 8 7 8 10 8 nan
nan 8 6 8 8 5 7 7 7 7 7 7 7 8 6 5 8 7 8 10 10 nan
nan 10 7 7 8 8 7 8 8 7 6 7 7 6 7 7 9 8 7 9 10 nan
nan 10 8 8 8 8 8 7 8 7 7 7 8 9 10 10 9 10 9 8 9 nan
nan 8 9 9 9 8 8 8 8 8 9 9 9 10 8 11 11 9 9 8 8 nan
nan 9 8 8 9 10 10 10 9 10 10 11 11 12 9 9 10 9 9 10 11 nan
nan 9 9 9 9 9 9 9 9 9 10 10 11 13 17 12 12 10 10 14 15 nan
nan 10 10 9 9 9 10 10 9 9 10 7 8 17 15 9 11 13 12 12 13 nan
nan 11 11 11 11 10 9 10 12 12 11 11 11 14 10 8 10 16 15 12 11 nan
nan 11 12 11 11 11 13 13 14 15 15 16 19 17 17 13 12 15 18 16 12 nan
nan 11 12 11 13 15 14 14 14 18 20 17 20 22 18 11 10 10 11 15 16 nan
nan 13 16 14 10 13 16 14 12 13 14 17 16 15 13 10 9 8 7 8 11 nan
nan nan nan nan nan nan nan nan nan nan nan nan nan nan nan nan nan nan nan nan nan nan
CAPE
28 61 21 9 1 2 0 22 17 42 66 56 73 94 119 138 215 262 391 396 388 312
26 39 40 14 18 8 8 4 27 9 9 3 7 27 56 134 89 226 394 316 378 461
46 47 62 70 45 22 32 12 0 0 0 12 20 42 42 143 120 182 349 246 347 275
114 62 52 171 101 44 34 22 5 8 4 7 17 41 82 146 181 254 365 308 155 79
43 38 79 126 109 151 108 10 31 22 5 5 54 77 99 106 70 135 188 198 80 9
64 95 175 108 15 2 3 6 5 2 3 1 1 4 20 24 117 181 106 146 8 0
99 148 152 60 12 44 1 0 0 0 0 0 0 0 2 7 40 97 81 66 20 9
192 57 27 21 4 1 8 0 0 0 0 1 4 9 13 44 49 56 12 1 1 8
67 81 95 44 32 4 10 7 6 9 6 24 32 1 0 3 19 4 1 0 0 0
61 61 68 47 34 44 76 73 65 58 52 99 157 0 1 0 1 0 0 0 0 0
67 63 60 56 36 38 77 148 232 108 107 53 25 0 1 1 0 0 0 0 0 0
169 129 130 144 161 221 142 98 17 6 0 1 2 1 1 0 0 0 0 0 0 0
231 228 235 236 226 2 0 1 0 0 0 0 0 0 0 0 0 1 0 0 0 0
202 202 28 2 1 0 0 0 0 0 1 0 0 0 0 0 0 0 0 0 1 1